Погода в Кирове

Погода в Кирове : погода сейчас, прогноз погоды и архив. Всё, что Вы хотите узнать о погоде в Кирове!

Хотите узнать прогноз погоды в Кирове? Тогда Вам сюда: Погода в Кирове

Поиск расширенной информации на нашем сайте:

Другие новости

Новости СМИ2

Главная страница сайта

Новости сайта

02.10.2013

Напоминаем, что на нашем новом сайте вы можете получить высокодетализированные прогнозы погоды по пунктам России, СНГ и мира (включающие важные для авиации метеовеличины, такие как направление и скорость ветра, видимость, явления погоды, количество и форма облачности, нижняя и верхняя граница облачности), а также ознакомиться с разнообразными материалами по авиационной метеорологии и подборкой полезных ссылок на эту тему.

Сайт Метеоцентр.Азия посвящён разработке технологий оптимизации авиаметеорологического обслуживания, включая проектирование и перспективное создание нескольких автоматизированных авиаметеорологических систем:
- система выпуска высокодетальных прогностических карт явлений погоды для нижнего воздушного пространства по России и ближнему зарубежью;
- система верификации прогнозов TAF (выпускаемых синоптиками официальных АМСГ РФ и ближнего зарубежья) и AUTOTAF (выпускаемых сайтом Метеоцентр.Азия) - выявление ошибок, онлайн-сопоставление с фактической погодой METAR, автоматическое внесение коррективов в прогнозы при резком отклонении фактической погоды от прогноза, подсчёт оправдываемости прогнозов по элементам и в целом;
- система обработки, анализа и отображения авиаметеорологической информации для применения провайдерами метеорологической информации.

Рекомендуем: Деревянные окна Marconi

Погода в Кирове - сегодня

Время (UTC), дата Ветер
(°,м/с) 
Видим.   Явления Облачность Т
(°С)
Тd
(°С)
f(%) Тe
(°С)
Pmin
(гПа)
dP
(гПа)
Po
(мм)
O2
(г/м3)
Тmin Tmax R s Состояние
почвы
09 17.02.17 210 (ЮЗ) 3-7{08}  20000 м  позёмок  10/0 верхняя 
[Ci]
-8.2 -13.4 66 -11  1017.9  -2.4  748  312           
12 17.02.17 200 (Ю) 3-7{09}  20000 м  позёмок  10/0 верхняя 
[Cc]
-7.3 -12.6 66 -10  1015.2  -2.6  746  310           
15 17.02.17 190 (Ю) 3-8{09}  20000 м  позёмок  10/5 600 м средняя, верхняя 
[Sc|Ac trans|Ci]
-8.3 -13 69 -11  1012.4  -2.8  744  310    -6.8       
18 17.02.17 200 (Ю) 3-7{11}  20000 м  позёмок  10/8 600 м средняя 
[Sc|Ac und]
-8.2 -12.8 69 -11  1010.4  -2  743  310           
21 17.02.17 200 (Ю) 3-5{09}  2000 м  снег  10/10 300 м 
[Ns]
-9 -11 85 -12  1008.5  -1.9  741  310           
00 18.02.17 200 (Ю) 3-7{07}  10 км  слаб. снег  10/8 600 м средняя 
[Sc|As op]
-8.7 -10.6 86 -12  1006.3  -2.1  740  309           
03 18.02.17 210 (ЮЗ) 3-6{07}  4000 м  слаб. снег  10/8 300 м средняя 
[Frnb|As op]
-8.2 -9.6 90 -11  1004.4  -1.9  738  308  -9.1    68  равномерный
сухой снег
100% 
06 18.02.17 220 (ЮЗ) 3-6{08}  20000 м  позёмок{снег}  10/4 300 м средняя 
[Frnb|Ac As]
-7.6 -9.4 87 -10  1002.9  -1.4  737  306           
09 18.02.17 210 (ЮЗ) 3-6{08}  4000 м  слаб. снег  10/5 300 м средняя 
[Frnb|As trans]
-5.5 -8.1 82 -8  1001.4  -1.3  736  303           
12 18.02.17 200 (Ю) 3-7{07}  10 км  снежные зёрна  10/10 300 м 
[St]
-5.6 -7.4 87 -8  999.9  -1.5  735  303           
15 18.02.17 210 (ЮЗ) 2-5{07}  4000 м  слаб. снег  10/8 300 м средняя 
[Frnb|As op]
-5.5 -6.9 90 -7  998.9  -1  734  303    -5.4     
18 18.02.17 220 (ЮЗ) 3-6{07}  4000 м  снежные зёрна{морось} [диам. гололёда 1 мм]  10/10 300 м 
[St]
-4.4 -5 96 -7  996.7  -2  733  301           
21 18.02.17 210 (ЮЗ) 3-5{07}  1000 м  ливневой снег [диам. гололёда 1 мм]  10/10 300 м кучево-дожд. 
[Cb cap]
-3.4 -3.8 97 -6  993.4  -3.2  730  298           
00 19.02.17 260 (З) 4-8{08}  20000 м  позёмок{ливн. осадки, снег} [диам. гололёда 1 мм]  8/8 300 м 
[St]
-2.2 -3.1 94 -5  992.2  -1.1  729  297           
03 19.02.17 310 (СЗ) 2-6{10}  20000 м  позёмок [диам. гололёда 0 мм]  8/4 300 м кучево-дожд., средняя 
[Cb cap|Ac trans]
-3.4 -5.5 85 -5  994.6  2.3  731  299  -5.5    70  равномерный
сухой снег
100% 
06 19.02.17 310 (СЗ) 3-6{08}  10 км  слаб. ливневой снег  8/4 300 м кучево-дожд., средняя 
[Cb cap|Ac trans]
-6.4 -10 76 -9  999.5  4.6  735  304  -6.5         
09 19.02.17 300 (СЗ) 3-8{09}  10 км  слаб. ливневой снег  8/6 300 м кучево-дожд., средняя 
[Cb cap|Ac trans]
-5.3 -10.8 65 -8  1003.3  3.7  737  304           
12 19.02.17 310 (СЗ) 2-5{09}  20000 м  позёмок{ливн. осадки}  3/1 600 м верхняя 
[Sc diur, vesp|Ci fib]
-5.2 -12.6 56 -7  1006.5  3.2  740  305           
15 19.02.17 250 (З) 1-2{07}  20000 м    4/1 600 м верхняя 
[Sc|Ci fib]
-8.9 -13.8 68 -9  1007.7  0.9  740  310    -3.3  0.0     
18 19.02.17 140 (ЮВ) 2-3{03}  20000 м    3/1 600 м верхняя 
[Sc|Ci fib]
-8.5 -11.7 78 -10  1005.2  -2.4  739  308           
21 19.02.17 170 (Ю) 4-7{08}  1000 м  ливневой снег  8/8 300 м кучево-дожд., средняя 
[Cb cap|Ac und]
-7.5 -10.1 82 -11  1000.9  -4.1  736  306           
00 20.02.17 180 (Ю) 3-7{08}  2000 м  ливневой снег  10/8 300 м кучево-дожд., средняя 
[Cb cap|Ac und]
-6.4 -7.6 91 -9  994.9  -5.8  731  302           
03 20.02.17 220 (ЮЗ) 4-7{10}  2000 м  ливневой снег  10/10 300 м кучево-дожд. 
[Cb cap]
-2.5 -3.4 94 -5  990.9  -3.6  729  297  -12.1    73  равномерный
сухой снег
100% 
06 20.02.17 230 (ЮЗ) 4-8{10}  4000 м  слаб. ливневой снег  10/10 300 м кучево-дожд. 
[Cb cap]
-0.3 -1.5 92 -3  989.5  -1.3  728  294           
09 20.02.17 230 (ЮЗ) 6-10{11}  2000 м  ливневой снег  10/10 300 м кучево-дожд. 
[Cb cap]
+0.7 -0.1 94 -3  987.8  -1.6  726  292           
Время (UTC), дата Ветер
(°,м/с) 
Видим.   Явления Облачность Т
(°С)
Тd
(°С)
f(%) Тe
(°С)
Pmin
(гПа)
dP
(гПа)
Po
(мм)
O2
(г/м3)
Тmin Tmax R s Состояние
почвы

Для получения пояснительной информации подведите курсор к названию столбца.

ПОГОДА в Кирове - архив

Всё, что Вы хотите узнать о погоде в Кирове - удобно и подробно!

Выберите нужную дату (начиная с 1 января 2015* года) и нажмите кнопку "Найти".
Будут отображены архивные сводки погоды по пункту Киров, начиная с указанной даты.


Отображать данные в формате CSV (для использования в таблицах Excel)


Внимание! Наш архив погоды предназначен исключительно для личного некоммерческого использования в познавательных целях. Если Вам необходимы официальные справки о состоянии погоды (для производственных, юридических, коммерческих и т.п. целей), обращайтесь в органы Росгидромета.

*Примечание: данная дата относится к архиву по метеостанциям СССР (Россия, СНГ, Балтия).
Архив по метеостанциям Зарубежной Европы и Азии (кроме Китая) хранится 10 дней, по другим регионам земного шара (Китай, Африка, Америка, Австралия, Океания) - 1 день.

Киров - район местоположения метеостанции


Название, широта, долгота, высота метеостанции:
Киров 58.6°ш. 49.6°д. 158 м над ур. моря [Российская Федерация]

Дополнительная информация

В oтличие oт бoльшинства пoгoдных сайтoв мы публикуем пoдрoбную метеoинфoрмацию в детальнoм прoфессиoнальнoм фoрмате.

Характеристики температуры и влажнoсти вoздуха измеряются на высoте 2 м в тени вдали oт зданий и деревьев.
Скoрoсть ветра измеряется на высoте 10 м (на урoвне рoста челoвека скoрoсть ветра ниже в 1.5-2 раза). Если метеoстанция нахoдится в гoрoде или в лесу, тo скoрoсть ветра занижена на 2-4 м/с пo сравнению с oткрытым местoм. Скoрoсть ветра над акватoриями крупных рек и oзёр, а также на вершинах хoлмoв на 2-5 м/с выше, чем в oбычных услoвиях.
Атмoсфернoе давление в разных тoчках местнoсти мoжет значительнo oтличаться oт давления на метеoстанции, в зависимoсти oт услoвий рельефа (при пoдъёме на 10 м давление пoнижается примернo на 1 мм рт.ст.).